Temperature
17 18 18 18 18 18 19 20 20 19 18 17 17 17 15 14 14 12 9 10 10 10 10 11 11 11 11 12 12 12 12 12 13 13 13 13 13 13 13 13 13 13 13 13 14 14 14 14 14
17 17 18 18 18 18 19 19 19 18 17 16 16 16 15 12 11 10 9 9 10 10 10 10 10 11 11 11 11 12 12 12 12 12 13 13 13 13 13 13 13 13 13 13 13 14 14 14 14
17 17 18 18 19 19 19 18 17 16 16 16 15 14 13 11 9 9 9 9 9 9 10 10 10 11 11 11 11 11 11 12 12 12 12 12 12 12 13 13 13 13 13 13 13 13 13 14 14
17 17 19 18 18 18 19 18 16 16 16 15 14 12 10 9 9 9 9 9 9 9 10 10 10 10 11 11 11 11 11 11 12 12 12 12 12 12 12 12 12 12 13 13 13 13 13 13 13
17 18 18 17 18 18 18 18 17 16 15 15 14 12 9 8 8 8 8 8 9 9 9 10 10 10 10 10 11 10 11 11 11 11 11 12 12 12 12 12 12 12 12 12 12 13 13 13 13
17 18 18 17 17 17 17 17 17 16 15 14 13 11 8 8 8 8 8 8 8 8 9 9 9 10 10 10 10 10 10 11 11 11 11 11 11 11 11 12 12 12 12 12 12 12 12 13 13
17 17 17 18 17 17 17 17 17 16 14 14 13 11 8 7 8 7 7 8 8 8 8 9 9 9 9 10 10 10 10 10 10 10 11 11 11 11 11 11 11 11 12 12 12 12 12 12 12
16 17 18 18 17 17 16 16 15 15 14 12 12 11 8 7 7 7 7 7 7 8 8 8 9 9 9 9 9 9 10 10 10 10 10 10 10 11 11 11 11 11 11 11 12 12 12 12 12
16 16 16 17 17 16 15 14 13 13 12 11 10 10 9 8 7 7 7 7 7 7 8 8 8 8 8 8 9 9 9 9 9 10 10 10 10 10 10 10 11 11 11 11 11 11 11 11 12
16 14 15 16 16 15 14 14 12 12 11 10 8 8 8 7 7 7 7 6 7 7 7 7 8 8 8 8 8 8 8 9 9 9 9 9 10 10 10 10 10 10 10 10 11 11 11 11 11
15 14 14 14 14 14 14 13 12 12 11 10 8 7 7 7 6 6 6 6 6 6 6 7 7 7 7 7 8 8 8 8 8 8 9 9 9 9 9 9 9 10 10 10 10 10 10 11 11
14 13 14 13 12 13 13 12 11 11 10 10 9 8 7 6 6 6 6 6 6 6 6 6 6 7 7 7 7 7 7 7 8 8 8 8 8 9 9 9 9 9 9 9 9 10 10 10 10
13 12 12 11 11 12 12 11 10 9 9 9 8 7 7 6 6 6 6 6 5 5 5 6 6 6 6 6 6 6 7 7 7 7 7 7 8 8 8 8 8 8 8 8 9 9 9 9 9
13 12 11 11 11 11 10 10 9 9 8 8 7 7 6 6 6 5 5 5 5 5 5 5 5 5 6 6 6 6 6 6 6 6 6 7 7 7 7 7 7 8 8 8 8 8 8 8 9
12 11 11 11 11 10 10 9 9 8 8 7 7 6 6 5 5 5 5 5 5 4 4 5 5 5 5 5 5 5 5 5 6 6 6 6 6 6 6 7 7 7 7 7 7 7 7 8 8
12 12 11 11 11 10 9 9 9 8 8 7 7 6 5 5 5 5 5 4 4 4 4 4 4 4 4 4 5 5 5 5 5 5 5 5 5 5 6 6 6 6 6 6 6 7 7 7 7
12 12 12 11 11 10 9 9 8 8 8 7 7 6 5 5 4 4 4 4 4 4 4 4 4 4 4 4 4 4 4 4 4 4 5 5 5 5 5 5 5 5 5 6 6 6 6 6 6
11 12 13 11 10 10 9 9 8 8 8 7 7 6 5 5 4 4 4 3 3 3 3 3 3 3 3 3 3 3 4 4 4 4 4 4 4 4 4 4 4 5 5 5 5 5 5 5 5
12 12 12 11 10 10 9 9 8 8 7 7 7 6 5 4 4 4 3 3 3 3 3 3 3 3 3 3 3 3 3 3 3 3 3 3 3 3 4 4 4 4 4 4 4 4 4 4 4
12 12 11 10 10 10 9 9 9 8 7 7 7 6 5 4 4 3 3 3 3 3 3 3 2 3 3 3 3 2 2 2 2 3 3 3 3 3 3 3 3 3 3 3 3 3 3 3 3
11 10 10 10 9 9 8 8 8 8 8 7 7 6 5 5 4 3 3 2 2 2 2 2 2 2 2 2 2 2 2 2 2 2 2 2 2 2 2 2 2 2 2 2 2 2 2 2 3
10 10 10 9 8 8 8 7 9 8 7 7 7 6 5 5 4 3 2 2 2 2 2 2 2 2 2 2 2 2 1 1 1 1 1 1 1 1 1 1 1 1 1 1 1 1 1 1 2
9 9 9 9 8 8 8 7 8 8 7 6 6 6 5 4 4 3 2 2 2 1 2 1 1 1 1 1 1 1 1 1 1 0 0 0 0 1 0 0 0 0 0 0 1 1 1 1 1
8 8 8 8 7 6 8 7 8 7 7 7 6 6 5 4 4 3 2 2 1 1 1 1 1 1 1 1 1 1 0 0 0 -0 -0 -0 -0 -0 -0 -0 -0 -0 -0 -0 -0 -0 0 -0 -0
7 7 7 7 6 7 8 7 7 7 7 6 5 5 5 4 3 2 2 1 1 1 1 0 0 0 0 0 0 0 -0 -0 -1 -1 -1 -1 -1 -1 -1 -1 -1 -1 -1 -1 -1 -1 -1 -1 -1
7 7 7 7 7 8 7 6 6 6 5 6 5 5 4 3 3 2 2 1 1 0 0 0 -0 -0 -0 -0 -0 -0 -1 -1 -1 -1 -1 -2 -2 -2 -2 -2 -2 -2 -2 -2 -2 -2 -2 -2 -1
7 6 7 6 6 6 7 7 5 5 5 4 4 4 3 3 2 2 1 1 0 0 -0 -0 -1 -1 -1 -1 -1 -1 -1 -1 -2 -2 -2 -2 -2 -2 -3 -3 -2 -2 -2 -2 -2 -2 -2 -2 -2
6 7 6 5 6 6 8 8 6 4 4 4 3 3 3 2 2 1 1 0 -0 -1 -1 -1 -1 -1 -1 -2 -2 -2 -2 -2 -2 -2 -2 -3 -3 -3 -3 -3 -3 -3 -3 -3 -3 -3 -3 -3 -3
5 5 6 6 6 6 6 6 5 5 4 3 3 3 2 2 1 1 0 -0 -1 -1 -1 -1 -1 -2 -2 -2 -2 -2 -2 -3 -3 -3 -3 -3 -3 -3 -4 -4 -4 -3 -3 -4 -3 -3 -4 -4 -3
5 6 5 5 5 5 5 5 4 4 4 3 3 3 2 1 1 0 -0 -1 -1 -2 -2 -2 -2 -2 -2 -3 -3 -3 -3 -3 -3 -3 -4 -4 -4 -4 -4 -4 -4 -4 -4 -4 -4 -4 -4 -4 -4
Wind_Speed
13 11 6 3 3 4 5 1 2 5 5 5 7 6 7 7 6 7 4 6 7 7 9 10 13 14 15 15 15 15 15 15 16 16 15 15 15 15 15 15 15 15 14 14 14 14 14 13 13
11 7 4 3 4 5 4 3 4 7 6 5 5 6 7 7 7 7 4 6 8 8 9 10 13 14 15 15 15 15 15 15 15 15 15 15 15 15 15 15 15 15 15 14 14 14 14 13 13
8 6 3 3 3 4 1 5 9 8 7 5 5 7 5 6 7 5 4 5 8 10 11 11 13 14 15 15 15 15 15 15 15 15 15 15 15 15 15 15 15 15 15 15 14 14 14 14 13
4 3 3 4 4 2 1 7 9 7 5 5 7 6 5 7 5 5 5 6 8 10 11 11 13 14 14 15 15 16 15 14 15 15 15 15 15 15 15 15 15 15 15 15 14 14 14 13 13
4 3 5 4 3 1 4 7 7 7 4 5 7 5 5 5 8 8 6 7 7 9 11 11 13 14 14 15 16 16 16 16 15 15 15 15 15 14 14 15 15 14 14 14 14 13 13 13 12
3 4 5 6 5 3 4 4 5 6 6 5 5 5 5 6 7 6 6 6 8 8 10 11 12 13 14 15 15 15 16 16 15 15 14 15 15 15 14 15 14 14 14 13 13 12 12 12 12
3 3 5 4 4 4 4 4 3 4 6 4 4 5 6 6 6 5 6 7 8 9 9 10 10 11 13 14 15 15 15 15 15 15 14 14 14 14 14 14 14 13 13 13 13 12 11 10 11
4 3 5 4 4 3 5 4 2 3 4 4 3 4 5 6 6 6 6 6 7 8 9 10 10 11 11 11 13 14 15 15 15 14 14 13 13 13 14 14 13 13 12 12 12 12 11 9 9
4 3 3 3 2 3 7 4 3 5 5 4 4 5 7 10 7 6 5 5 5 6 7 9 9 10 10 9 10 11 12 14 14 13 14 13 12 11 12 12 13 12 12 12 12 11 11 9 8
2 3 2 4 3 4 7 5 4 3 4 3 5 8 10 9 7 6 5 5 4 5 5 7 8 8 9 9 9 9 10 12 13 13 14 13 12 11 10 11 12 12 12 11 11 11 11 10 8
1 1 0 4 6 4 5 5 4 4 3 4 7 9 9 7 6 5 5 5 4 4 5 5 7 8 8 8 8 9 9 11 12 14 13 12 12 11 11 11 11 12 12 12 11 10 10 10 8
2 1 1 3 4 3 3 4 2 1 2 5 8 10 9 7 6 5 5 4 4 4 4 4 6 7 8 8 7 8 8 10 10 12 13 12 10 10 11 10 11 11 11 11 11 9 10 9 8
4 2 2 4 3 1 3 2 2 2 5 6 8 9 9 7 5 5 5 5 4 4 4 3 5 6 7 7 7 8 8 9 10 11 12 12 10 9 10 10 11 11 11 10 9 9 9 8 8
3 4 4 4 3 2 3 2 2 4 6 7 7 8 8 7 6 5 5 4 4 4 3 3 4 6 6 6 6 7 7 8 9 10 12 12 11 10 9 9 9 10 11 10 9 9 8 6 6
4 3 4 5 5 3 3 4 6 7 8 7 7 8 7 6 6 5 5 4 4 4 3 3 4 5 6 6 6 6 7 8 8 9 11 11 11 10 9 8 8 10 11 10 9 9 8 6 6
5 4 4 6 6 5 4 6 5 9 9 7 7 7 7 7 6 5 5 4 4 4 4 3 4 4 5 6 6 6 7 7 8 9 10 12 11 10 9 8 7 10 10 9 6 5 4 5 5
5 5 5 5 7 5 6 5 5 7 8 8 7 7 7 7 6 6 6 5 4 4 4 3 4 4 4 5 5 6 6 7 8 9 9 10 11 11 9 8 9 10 8 7 6 5 4 4 5
4 5 5 6 7 6 7 6 5 7 8 7 7 7 7 7 7 7 6 5 5 4 4 4 4 3 3 3 3 4 5 6 8 8 9 9 10 11 9 8 9 9 6 5 5 5 4 4 4
4 5 5 0 4 5 8 8 7 8 8 8 8 7 7 7 7 7 7 6 5 4 4 3 3 2 2 2 2 2 2 2 4 6 8 9 9 9 9 8 7 8 5 4 4 4 5 4 4
6 7 5 1 3 3 6 9 7 9 10 9 9 8 8 7 7 7 7 6 5 5 4 3 3 2 2 2 1 1 1 1 2 4 6 8 9 9 8 8 7 7 5 5 5 4 4 3 4
6 5 4 2 0 4 4 6 6 6 8 7 7 8 8 9 9 8 7 6 5 5 4 3 3 3 2 2 2 2 2 2 2 3 3 6 7 8 8 8 7 7 5 4 4 4 4 3 3
5 1 2 2 1 3 4 4 5 6 8 9 8 7 8 7 7 8 7 6 6 5 4 4 4 3 2 2 2 2 1 1 2 1 2 4 5 6 7 7 7 6 5 4 4 4 3 3 3
0 2 2 4 4 4 5 5 5 5 6 8 9 8 8 8 8 8 7 6 5 5 5 4 4 3 2 2 2 1 1 1 1 1 2 3 4 5 6 6 6 6 5 5 6 4 3 3 3
2 1 2 2 2 5 7 6 5 4 5 6 7 7 7 7 7 7 6 5 5 5 4 4 4 3 2 2 1 1 1 1 1 2 2 2 2 3 5 5 6 6 5 5 5 5 4 3 4
2 2 0 1 4 6 4 5 5 2 3 4 6 6 6 7 7 7 7 6 6 6 5 4 4 3 2 2 1 1 1 0 0 1 2 2 3 3 3 5 5 5 5 6 6 5 4 3 4
4 3 3 4 4 2 2 6 3 3 4 5 5 5 5 6 6 6 7 6 6 5 5 4 4 3 3 2 1 1 1 0 0 1 1 2 2 3 4 5 5 6 6 6 5 5 4 4 4
3 4 1 1 3 3 5 4 0 3 4 5 5 5 5 5 5 6 6 6 6 5 5 5 4 3 3 2 1 1 1 0 1 1 1 2 2 4 5 6 6 6 6 6 5 4 4 4 4
2 1 2 3 3 5 6 4 3 4 5 5 5 4 4 4 5 5 5 5 5 5 4 4 3 3 2 2 1 1 0 0 1 1 2 2 3 4 5 5 6 6 6 6 5 4 5 5 5
5 3 4 4 3 3 4 3 1 4 5 6 5 4 4 4 4 4 4 5 5 4 4 3 3 3 2 2 1 0 1 1 1 2 2 3 3 4 4 5 5 5 6 6 5 5 5 5 6
3 5 6 4 5 4 3 4 1 4 4 5 4 4 4 4 4 4 4 4 4 4 3 3 2 2 2 1 1 1 1 1 2 2 3 3 4 4 5 5 5 6 6 6 5 6 6 6 7
Wind_Direction
298 271 250 257 244 232 227 213 127 93 69 50 40 56 65 48 45 102 108 59 53 48 47 35 35 39 41 41 42 42 43 44 43 43 43 43 43 44 44 44 43 46 48 48 48 48 51 54 55
289 275 255 242 242 231 207 179 109 80 90 80 52 65 76 77 71 93 77 50 53 54 53 43 40 42 43 42 42 42 43 44 43 41 42 43 43 44 45 45 44 45 46 48 48 49 52 53 53
272 257 252 238 245 256 168 99 100 90 95 94 67 44 52 75 79 78 64 53 58 60 57 47 45 46 45 44 43 42 43 43 42 40 40 41 42 44 46 44 45 45 45 47 48 50 51 51 50
265 235 247 251 240 290 86 95 106 111 104 97 100 84 68 48 68 79 71 58 61 60 59 51 49 48 47 45 44 42 42 42 42 42 41 40 41 43 45 44 45 46 44 44 46 48 49 49 46
243 244 228 229 226 237 85 101 127 120 120 110 106 99 93 74 79 81 71 60 63 59 59 57 52 49 47 46 44 41 40 40 41 43 42 41 41 44 45 44 44 44 43 44 44 45 48 47 43
248 247 235 219 189 176 112 109 127 122 118 113 110 108 102 101 87 78 70 65 61 61 63 61 54 51 47 45 43 42 40 39 40 41 41 41 40 41 43 42 42 42 42 41 41 43 45 45 41
271 256 256 242 182 171 136 129 143 132 120 110 104 110 120 111 95 90 78 68 63 60 59 61 57 52 47 44 42 41 40 39 38 38 37 38 38 39 41 39 39 40 41 40 39 40 41 43 39
294 286 253 240 212 169 121 113 70 95 103 71 61 132 139 132 114 102 89 77 66 58 53 52 50 47 47 45 43 42 40 38 36 34 32 33 35 37 38 35 35 37 38 38 36 35 35 38 36
285 265 249 243 215 132 124 115 63 51 85 70 55 57 106 124 123 114 98 82 67 56 49 48 44 42 41 46 43 40 38 34 31 29 24 26 28 32 35 30 30 31 32 32 30 30 28 28 27
257 246 262 341 17 103 131 121 120 124 124 122 103 87 110 123 130 125 113 98 80 62 50 44 41 38 38 39 38 36 36 31 29 26 23 25 24 22 29 26 26 25 26 24 23 25 25 22 19
208 237 255 15 45 81 124 128 141 165 177 168 148 137 133 135 137 133 120 107 96 79 60 47 40 38 41 35 35 34 33 32 29 24 22 22 21 19 22 24 19 18 21 17 13 17 18 17 17
172 28 41 57 49 78 130 133 146 196 91 94 128 140 142 148 147 138 125 113 102 89 72 51 42 39 40 40 38 36 32 31 29 22 22 22 19 19 16 20 17 17 15 11 9 8 8 8 10
198 184 91 79 75 99 112 130 131 157 110 99 115 134 147 152 146 132 121 115 106 97 82 63 45 41 41 41 39 38 34 33 31 25 21 22 22 17 14 14 17 15 10 9 5 2 3 4 6
143 146 145 136 132 112 126 153 168 187 145 140 141 145 151 152 147 137 129 120 109 105 96 81 64 49 45 46 42 40 36 35 33 28 22 21 23 19 16 13 13 12 5 2 3 357 358 358 0
141 159 172 178 164 158 155 226 202 168 156 159 159 153 153 154 150 145 135 123 119 112 98 84 78 55 50 51 46 44 39 39 34 27 22 22 23 20 18 15 11 7 2 360 359 357 0 359 358
197 205 206 181 168 157 195 244 177 161 167 173 170 164 162 159 153 139 127 120 117 111 105 93 80 66 52 50 48 48 44 41 37 28 24 22 20 19 18 16 8 4 4 2 355 357 359 357 352
204 228 217 181 178 162 214 242 167 164 177 179 175 170 166 161 154 142 136 131 123 117 112 102 89 80 67 59 53 53 48 43 39 31 25 21 19 16 17 14 7 3 5 5 359 357 360 353 350
213 232 232 199 180 185 222 238 195 183 186 186 180 177 172 172 165 148 137 131 126 123 120 113 103 92 80 73 66 57 48 40 37 30 24 20 18 14 15 12 8 5 5 7 6 356 356 353 344
282 273 269 284 135 197 232 241 217 192 192 194 186 181 177 173 154 143 139 136 133 128 125 117 110 106 94 87 71 57 35 25 26 28 22 18 15 13 14 10 4 5 3 2 1 358 350 353 346
261 268 274 113 138 229 257 256 223 193 192 194 190 186 179 165 155 155 148 148 149 147 138 125 116 102 82 72 59 72 63 35 32 28 23 17 14 12 11 11 3 0 356 355 360 360 349 343 360
242 245 267 276 268 241 278 277 210 193 185 191 192 182 176 173 168 164 161 158 154 152 149 144 130 113 90 66 71 69 53 29 20 12 11 11 8 9 8 5 2 357 354 347 346 357 358 335 336
246 255 260 257 256 251 191 274 229 187 189 197 196 184 180 176 169 166 163 162 160 155 143 136 134 126 106 86 101 95 60 13 347 349 344 351 4 9 6 2 358 355 353 344 337 353 341 330 315
213 22 259 240 242 273 217 237 261 177 201 206 195 187 177 174 170 165 161 160 156 144 141 141 137 128 116 103 109 102 76 43 11 356 345 346 358 7 2 359 355 352 348 344 338 335 334 321 307
126 202 220 228 233 255 214 207 259 192 194 186 177 172 167 164 160 154 148 143 145 140 139 142 143 139 133 132 128 122 105 51 5 345 343 339 339 352 356 355 352 344 339 337 331 325 315 309 307
192 150 160 235 224 242 180 202 246 148 98 126 152 161 164 156 153 155 156 157 156 152 153 153 153 152 151 147 139 131 123 132 305 322 332 330 329 332 342 346 337 327 325 323 322 316 309 298 298
204 203 184 223 242 258 201 225 229 115 99 94 116 133 134 140 151 159 162 160 161 160 159 163 165 163 163 161 156 146 157 187 280 318 320 320 313 312 327 329 323 318 316 313 314 306 301 298 285
187 215 286 318 290 272 245 219 196 130 123 119 120 128 142 148 151 156 156 157 162 165 168 170 171 169 169 170 169 182 178 130 322 315 318 309 312 315 323 321 314 309 307 302 299 292 290 296 280
306 240 158 190 237 256 254 228 210 172 164 149 147 153 152 147 150 155 158 159 161 161 160 159 162 170 175 172 189 218 199 248 289 302 296 298 304 313 310 308 307 306 304 299 292 286 286 284 284
177 205 211 221 239 234 262 261 52 140 148 155 160 152 151 153 158 158 159 156 150 147 154 159 167 168 170 168 170 194 261 277 280 285 286 293 298 300 299 302 302 301 299 295 285 279 282 279 283
206 207 191 195 232 222 252 261 31 94 111 126 133 138 140 140 145 148 149 145 145 150 153 157 162 169 172 167 185 228 253 268 282 290 294 299 300 302 301 301 296 294 296 293 280 276 280 278 277
Height
1504 1506 1508 1510 1512 1513 1511 1508 1505 1509 1514 1518 1519 1520 1524 1531 1535 1546 1547 1544 1544 1543 1543 1543 1543 1543 1543 1543 1543 1542 1542 1542 1542 1541 1541 1541 1541 1541 1541 1541 1540 1540 1540 1540 1540 1540 1540 1541 1541
1505 1507 1510 1510 1512 1516 1512 1507 1509 1512 1517 1520 1522 1524 1527 1534 1538 1542 1543 1544 1544 1543 1543 1543 1543 1543 1543 1543 1543 1542 1542 1542 1542 1542 1541 1541 1541 1541 1541 1541 1541 1541 1541 1541 1541 1541 1541 1541 1542
1505 1507 1510 1507 1509 1511 1510 1507 1511 1516 1519 1521 1524 1527 1531 1537 1539 1541 1542 1543 1543 1543 1543 1543 1543 1543 1543 1543 1543 1542 1542 1542 1542 1542 1542 1542 1542 1541 1541 1541 1541 1541 1541 1542 1542 1542 1542 1542 1543
1506 1509 1508 1509 1510 1508 1507 1509 1513 1517 1520 1523 1526 1531 1535 1539 1540 1541 1542 1543 1543 1542 1542 1543 1543 1543 1543 1543 1543 1542 1542 1542 1542 1542 1542 1542 1542 1542 1541 1541 1541 1542 1542 1542 1542 1543 1543 1543 1543
1507 1507 1508 1510 1510 1508 1508 1511 1513 1517 1521 1524 1526 1532 1537 1539 1539 1540 1541 1542 1542 1542 1542 1543 1543 1543 1543 1543 1543 1542 1542 1542 1542 1542 1542 1542 1542 1542 1542 1542 1542 1542 1542 1543 1543 1543 1543 1543 1544
1507 1505 1508 1510 1509 1509 1510 1512 1514 1517 1521 1525 1527 1532 1537 1539 1539 1540 1540 1541 1542 1542 1542 1542 1543 1543 1543 1543 1543 1542 1542 1542 1542 1542 1542 1542 1542 1542 1542 1542 1542 1542 1542 1543 1543 1543 1543 1544 1544
1507 1505 1505 1503 1508 1510 1511 1513 1515 1517 1521 1525 1527 1532 1537 1538 1538 1539 1540 1541 1541 1541 1542 1542 1542 1542 1543 1542 1542 1542 1542 1542 1542 1542 1542 1541 1542 1541 1542 1542 1542 1542 1542 1542 1543 1543 1543 1544 1544
1505 1504 1503 1503 1506 1509 1511 1514 1517 1519 1522 1525 1527 1531 1534 1536 1537 1539 1539 1540 1541 1541 1541 1541 1542 1542 1542 1542 1542 1542 1542 1541 1541 1541 1541 1541 1541 1541 1541 1541 1541 1542 1542 1542 1542 1543 1543 1543 1544
1505 1508 1507 1504 1505 1508 1511 1515 1519 1520 1522 1526 1527 1529 1531 1534 1536 1538 1539 1539 1540 1540 1541 1541 1541 1541 1541 1541 1541 1541 1541 1541 1540 1540 1541 1541 1540 1540 1540 1541 1541 1541 1541 1541 1541 1542 1542 1543 1543
1505 1509 1508 1506 1504 1507 1511 1515 1519 1521 1524 1526 1528 1529 1531 1533 1535 1536 1537 1538 1539 1539 1540 1540 1540 1540 1540 1540 1540 1540 1540 1540 1540 1540 1540 1540 1540 1540 1539 1540 1540 1540 1540 1540 1541 1541 1541 1542 1542
1505 1508 1508 1508 1507 1509 1512 1516 1519 1521 1523 1525 1526 1528 1530 1532 1534 1535 1536 1537 1538 1539 1539 1539 1540 1540 1540 1540 1539 1539 1539 1539 1539 1539 1539 1539 1539 1539 1539 1538 1538 1539 1539 1539 1539 1540 1540 1540 1541
1506 1508 1509 1510 1510 1512 1514 1516 1519 1520 1522 1523 1524 1527 1529 1531 1533 1534 1535 1536 1537 1538 1538 1538 1538 1539 1539 1539 1539 1538 1538 1538 1538 1538 1538 1538 1537 1537 1537 1537 1537 1537 1537 1537 1538 1538 1538 1539 1539
1506 1509 1510 1511 1512 1513 1515 1517 1519 1521 1522 1523 1524 1526 1528 1530 1532 1533 1535 1535 1536 1536 1537 1537 1537 1538 1538 1538 1538 1538 1537 1537 1537 1537 1537 1537 1536 1536 1536 1536 1536 1536 1536 1536 1536 1536 1536 1537 1537
1506 1509 1511 1512 1513 1514 1516 1518 1519 1519 1521 1522 1524 1525 1527 1529 1530 1532 1533 1534 1534 1535 1535 1536 1536 1537 1537 1537 1537 1537 1537 1537 1537 1536 1536 1536 1535 1535 1535 1535 1535 1534 1534 1534 1534 1534 1534 1535 1535
1507 1509 1511 1512 1513 1515 1517 1518 1516 1517 1519 1521 1523 1524 1526 1528 1529 1530 1531 1532 1533 1534 1534 1534 1535 1536 1536 1536 1536 1536 1536 1536 1536 1535 1535 1535 1534 1534 1533 1533 1533 1533 1532 1532 1533 1533 1532 1532 1533
1506 1508 1511 1509 1511 1513 1518 1516 1512 1514 1517 1519 1521 1522 1524 1526 1527 1529 1530 1531 1532 1532 1533 1533 1534 1534 1535 1535 1535 1535 1535 1535 1534 1534 1534 1534 1533 1533 1532 1532 1531 1531 1531 1530 1530 1530 1530 1530 1530
1505 1507 1505 1508 1508 1510 1514 1512 1511 1512 1514 1517 1519 1521 1522 1524 1526 1527 1528 1529 1530 1531 1531 1532 1533 1533 1533 1534 1534 1534 1534 1534 1533 1533 1533 1533 1532 1531 1531 1530 1530 1529 1529 1528 1528 1528 1528 1528 1527
1504 1502 1499 1503 1505 1508 1511 1510 1510 1511 1512 1514 1516 1518 1520 1522 1523 1525 1526 1527 1528 1529 1530 1531 1531 1531 1532 1532 1532 1533 1533 1532 1532 1532 1532 1531 1531 1530 1530 1529 1528 1527 1527 1527 1526 1526 1526 1525 1525
1498 1498 1499 1500 1502 1506 1507 1506 1506 1507 1509 1511 1513 1516 1518 1519 1521 1523 1524 1525 1526 1527 1528 1529 1529 1530 1530 1530 1530 1530 1530 1531 1531 1530 1530 1530 1529 1528 1528 1527 1526 1526 1525 1525 1524 1524 1523 1523 1523
1498 1500 1500 1502 1503 1505 1505 1502 1500 1501 1504 1506 1509 1512 1514 1517 1518 1520 1521 1523 1524 1525 1526 1527 1527 1528 1528 1529 1529 1529 1529 1529 1528 1528 1528 1528 1527 1526 1526 1525 1525 1524 1523 1522 1522 1521 1521 1521 1521
1498 1501 1502 1504 1505 1504 1506 1503 1498 1497 1500 1503 1506 1508 1511 1513 1515 1517 1519 1520 1521 1523 1524 1524 1525 1526 1527 1527 1527 1527 1527 1527 1526 1526 1526 1526 1525 1524 1524 1523 1522 1522 1521 1520 1519 1519 1518 1518 1519
1500 1499 1501 1504 1509 1508 1506 1512 1495 1494 1498 1500 1502 1505 1507 1510 1512 1514 1516 1518 1519 1521 1522 1523 1523 1524 1525 1525 1525 1525 1525 1524 1524 1524 1524 1523 1523 1522 1521 1521 1520 1519 1518 1518 1517 1517 1516 1516 1516
1500 1500 1501 1503 1505 1508 1505 1510 1497 1492 1496 1496 1498 1501 1504 1507 1510 1511 1513 1515 1517 1518 1519 1520 1521 1522 1523 1523 1523 1523 1523 1523 1522 1522 1521 1520 1520 1519 1518 1518 1517 1516 1516 1515 1514 1514 1514 1513 1513
1500 1501 1502 1504 1508 1513 1500 1506 1496 1492 1490 1490 1494 1498 1501 1504 1507 1509 1511 1513 1514 1516 1517 1518 1519 1520 1520 1521 1521 1521 1521 1520 1520 1519 1518 1518 1517 1516 1516 1515 1514 1513 1513 1512 1511 1510 1511 1510 1510
1502 1505 1510 1511 1513 1505 1495 1500 1495 1488 1487 1488 1492 1495 1498 1501 1504 1506 1508 1510 1511 1513 1514 1515 1516 1517 1518 1518 1519 1519 1519 1519 1518 1517 1516 1515 1514 1513 1512 1512 1511 1510 1509 1508 1508 1507 1507 1507 1506
1502 1502 1509 1511 1505 1498 1499 1499 1492 1488 1488 1489 1492 1495 1497 1500 1502 1504 1506 1507 1509 1510 1512 1513 1514 1514 1515 1516 1516 1516 1516 1516 1515 1515 1514 1513 1512 1511 1509 1508 1508 1507 1505 1505 1504 1504 1503 1503 1502
1500 1503 1501 1506 1505 1507 1497 1488 1492 1489 1490 1491 1493 1495 1497 1499 1501 1503 1504 1505 1507 1508 1509 1511 1511 1512 1513 1513 1513 1514 1513 1513 1512 1511 1511 1510 1509 1508 1506 1505 1504 1503 1502 1501 1501 1500 1499 1498 1498
1501 1500 1505 1508 1508 1503 1489 1486 1489 1491 1491 1492 1493 1495 1496 1498 1499 1501 1502 1503 1505 1506 1507 1508 1509 1510 1510 1510 1510 1510 1510 1510 1509 1509 1508 1507 1506 1504 1503 1502 1500 1499 1498 1497 1496 1495 1495 1494 1493
1502 1502 1501 1502 1500 1503 1498 1495 1487 1487 1487 1490 1492 1493 1495 1496 1498 1499 1501 1502 1503 1504 1505 1506 1507 1507 1508 1508 1508 1507 1507 1507 1506 1506 1505 1503 1502 1501 1500 1498 1496 1495 1493 1492 1491 1490 1490 1489 1488
1495 1495 1499 1505 1502 1499 1502 1499 1488 1487 1487 1489 1491 1493 1494 1496 1497 1498 1499 1500 1501 1501 1502 1503 1504 1505 1505 1505 1505 1505 1504 1504 1503 1502 1501 1500 1499 1497 1496 1494 1492 1491 1489 1488 1486 1485 1485 1484 1483